Location: La Pernelle
(49.6188°N, 1.2999°W)
Time: 16:53:56
(UTC+00:00)

SL-16 R/B - Pass Details

Date: 23 October 2021
Orbit: 842 x 846 km, 71.0° (Epoch: 28 November)

Event Time Altitude Azimuth Distance (km) Brightness Sun altitude
Rises 19:50:36 0° 237° (WSW) 3,394 5.9 -28.3°
Reaches altitude 10° 19:53:16 10° 247° (WSW) 2,464 5.2 -28.7°
Maximum altitude 19:58:24 35° 312° (NW) 1,352 3.7 -29.5°
Drops below altitude 10° 20:03:34 10° 17° (NNE) 2,478 4.6 -30.3°
Enters shadow 20:03:39 10° 17° (NNE) 2,504 4.7 -30.3°
